User: anonymous   Login
Location: Newark
(51.3318°N, 0.0053°E)
Time: 03:06:14
(UTC+00:00)
Language:

ONEWEB-0421 - Orbit

View from above orbital plane
View from above orbital plane
View from above satellite
View from above satellite

Ground track
Ground track

The orbit data is extracted from the following two-line orbital elements,

1 50496U 21132AD  22344.00001157 -.00973763  00000-0 -26228+0 0  9998
2 50496  87.3196 233.2682 0002618 137.2887  61.7840 14.51228371 53210
Epoch (UTC): 10 December 2022 00:00:01
Eccentricity: 0.0002618
inclination: 87.3196°
perigee height: 720 km
apogee height: 723 km
right ascension of ascending node: 233.2682°
argument of perigee: 137.2887°
revolutions per day: 14.51228371
mean anomaly at epoch: 61.7840°
orbit number at epoch: 5321

The dashed part of the orbit path shows where the satellite is in the earth's shadow,  

DLR